World > North America > United States > Illinois

Swygert, Illinois Regional Weather

Lat: 40.91N, Lon: 88.53W
Wx Zone: ILZ032Web Search
Swygert Weather Warning NWS WEATHER ALERT FOR THE SWYGERT, IL AREA - Issued: 325 AM CDT Sat May 8 2021 Swygert Weather Warning  

Our weather pages are very print friendly and they make great conversation starters.

Feedback


°F Click to change Swygert hourly weather to Imperial units.Click to change Swygert hourly weather to Metric units. °C
Swygert Weather Map
UTC Time: 5/8/2021, 15:19
Your Time:

Swygert, IL Regional Weather

Expires:202105081600;;791323
ASUS43 KLOT 081509
RWRIL 

ILLINOIS REGIONAL WEATHER ROUNDUP
NATIONAL WEATHER SERVICE CHICAGO/ROMEOVILLE IL
1000 AM CDT SAT MAY 08 2021

NOTE: "FAIR" INDICATES FEW OR NO CLOUDS BELOW 12,000 FEET WITH NO
SIGNIFICANT WEATHER AND/OR OBSTRUCTIONS TO VISIBILITY.

* THESE STATIONS ARE NOT UNDER NWS QUALITY CONTROL. THEY ALSO MAY NOT
  REPORT WEATHER SUCH AS PRECIPITATION OR FOG.


ILZ028>032-037-038-041>044-048-051>054-059>061-081600-
CENTRAL ILLINOIS
  
CITY           SKY/WX    TMP DP  RH WIND       PRES   REMARKS
PONTIAC        SUNNY     50  32  50 E6        30.17F                  
BLOOMINGTON    SUNNY     50  32  50 SE7       30.14F                  
DECATUR        SUNNY     53  34  48 E13       30.13F                  
PEORIA         MOSUNNY   50  32  50 SE7       30.14F                  
LACON*         MOSUNNY   50  33  51 CALM      30.14F                  
LINCOLN*       SUNNY     54  27  35 E8        30.14F                  
SPRINGFIELD    MOSUNNY   55  32  41 E10       30.13F                  
TAYLORVILLE    NOT AVBL                                               
$$


SKY/WX - Weather  TMP - Temperature  DP - Dew Point  RH - Relative Humidity
WIND - Wind Direction/Speed PRES - Barometric Pressure VSB - Visibility
WCI - Wind Chill Index E13G22 Wind - East Wind 13 mph/Gusts of 22 mph